Location: Morlupo
(42.1333°N, 12.5000°E)
Time: 00:20:40
(UTC+00:00)

ATLAS 3B R/B - Visible Passes

Search period start: 24 January 2021 00:00
Search period end: 03 February 2021 00:00
Orbit: 1013 x 1182 km, 63.8° (Epoch: 08 January)

Date Brightness Start Highest point End Pass type
(mag) Time Alt. Az. Time Alt. Az. Time Alt. Az.
24 Jan 6.1 17:38:51 10° W 17:41:32 12° WSW 17:44:14 10° SW visible
25 Jan 4.7 05:37:02 10° S 05:42:38 31° ESE 05:48:18 10° NE visible
25 Jan 5.6 16:49:32 10° WNW 16:54:46 23° WSW 17:00:07 10° SSW visible
26 Jan 5.5 04:51:41 10° SE 04:55:49 18° ESE 04:59:57 10° ENE visible
27 Jan 3.3 05:51:59 10° SSW 05:58:25 62° ESE 06:04:58 10° NE visible
28 Jan 4.2 05:05:30 10° S 05:11:23 37° ESE 05:17:21 10° NE visible
29 Jan 5.0 04:19:48 10° SSE 04:24:30 21° ESE 04:29:16 10° ENE visible
30 Jan 5.5 03:36:02 10° ESE 03:37:47 11° ESE 03:39:33 10° E visible
30 Jan 2.9 05:20:44 10° SSW 05:27:13 72° ESE 05:33:52 10° NE visible
31 Jan 3.8 04:34:03 10° S 04:40:09 43° ESE 04:46:22 10° NE visible
01 Feb 4.6 03:48:03 10° SSE 03:53:14 25° ESE 03:58:28 10° ENE visible
01 Feb 2.6 05:36:53 10° SW 05:43:21 63° NW 05:50:01 10° NNE visible
02 Feb 5.2 03:03:18 10° SE 03:06:27 14° ESE 03:09:38 10° ENE visible
02 Feb 2.7 04:49:31 10° SSW 04:56:04 83° ESE 05:02:46 10° NE visible
